Time,TemperatureF,DewpointF,PressureIn,WindDirection,WindDirectionDegrees,WindSpeedMPH,WindSpeedGustMPH,Humidity,HourlyPrecipIn,Conditions,Clouds,dailyrainin,SoftwareType,DateUTC
2013-10-21 00:02:00,48.0,48.0,-100.00,North,356,4.0,-999.0,99,0.00,,,-99.99,,2013-10-21 07:02:00,
2013-10-21 00:12:00,48.0,48.0,-100.00,North,356,4.0,-999.0,99,0.00,,,-99.99,,2013-10-21 07:12:00,
2013-10-21 00:22:00,48.0,48.0,-100.00,North,356,4.0,-999.0,99,0.00,,,-99.99,,2013-10-21 07:22:00,
2013-10-21 00:30:00,47.0,47.0,-100.00,North,-999,3.0,-999.0,99,0.00,,,-99.99,,2013-10-21 07:30:00,
2013-10-21 00:52:00,47.0,47.0,-100.00,North,-999,3.0,-999.0,99,0.00,,,-99.99,,2013-10-21 07:52:00,
2013-10-21 01:02:00,47.0,47.0,-100.00,North,-999,3.0,-999.0,99,0.00,,,-99.99,,2013-10-21 08:02:00,
2013-10-21 01:12:00,47.0,47.0,-100.00,North,-999,3.0,-999.0,99,0.00,,,-99.99,,2013-10-21 08:12:00,
2013-10-21 01:21:00,47.0,47.0,-100.00,North,-999,3.0,-999.0,99,0.00,,,-99.99,,2013-10-21 08:21:00,
2013-10-21 01:30:00,47.0,47.0,-100.00,North,3,5.0,-999.0,99,0.00,,,-99.99,,2013-10-21 08:30:00,
2013-10-21 01:52:00,47.0,47.0,-100.00,North,3,5.0,-999.0,99,0.00,,,-99.99,,2013-10-21 08:52:00,
2013-10-21 02:02:00,47.0,47.0,-100.00,North,3,5.0,-999.0,99,0.00,,,-99.99,,2013-10-21 09:02:00,
2013-10-21 02:11:00,47.0,47.0,-100.00,North,3,5.0,-999.0,99,0.00,,,-99.99,,2013-10-21 09:11:00,
2013-10-21 02:22:00,47.0,47.0,-100.00,North,3,5.0,-999.0,99,0.00,,,-99.99,,2013-10-21 09:22:00,
2013-10-21 02:30:00,47.0,46.0,-100.00,North,4,7.0,-999.0,99,0.00,,,-99.99,,2013-10-21 09:30:00,
2013-10-21 02:53:00,47.0,46.0,-100.00,North,4,7.0,-999.0,99,0.00,,,-99.99,,2013-10-21 09:53:00,
2013-10-21 03:03:00,47.0,46.0,-100.00,North,4,7.0,-999.0,99,0.00,,,-99.99,,2013-10-21 10:03:00,
2013-10-21 03:13:00,47.0,46.0,-100.00,North,4,7.0,-999.0,99,0.00,,,-99.99,,2013-10-21 10:13:00,
2013-10-21 03:22:00,47.0,46.0,-100.00,North,4,7.0,-999.0,99,0.00,,,-99.99,,2013-10-21 10:22:00,
2013-10-21 03:30:00,47.0,46.0,-100.00,North,5,5.0,-999.0,99,0.00,,,-99.99,,2013-10-21 10:30:00,
2013-10-21 03:52:00,47.0,46.0,-100.00,North,5,5.0,-999.0,99,0.00,,,-99.99,,2013-10-21 10:52:00,
2013-10-21 04:02:00,47.0,46.0,-100.00,North,5,5.0,-999.0,99,0.00,,,-99.99,,2013-10-21 11:02:00,
2013-10-21 04:12:00,47.0,46.0,-100.00,North,5,5.0,-999.0,99,0.00,,,-99.99,,2013-10-21 11:12:00,
2013-10-21 04:22:00,47.0,46.0,-100.00,North,5,5.0,-999.0,99,0.00,,,-99.99,,2013-10-21 11:22:00,
2013-10-21 04:30:00,46.0,46.0,-100.00,NNE,14,2.0,-999.0,99,0.00,,,-99.99,,2013-10-21 11:30:00,
2013-10-21 04:52:00,46.0,46.0,-100.00,NNE,14,2.0,-999.0,99,0.00,,,-99.99,,2013-10-21 11:52:00,
2013-10-21 05:01:00,46.0,46.0,-100.00,NNE,14,2.0,-999.0,99,0.00,,,-99.99,,2013-10-21 12:01:00,
2013-10-21 05:12:00,46.0,46.0,-100.00,NNE,14,2.0,-999.0,99,0.00,,,-99.99,,2013-10-21 12:12:00,
2013-10-21 05:22:00,46.0,46.0,-100.00,NNE,14,2.0,-999.0,99,0.00,,,-99.99,,2013-10-21 12:22:00,
2013-10-21 05:30:00,46.0,46.0,-100.00,NNE,18,2.0,-999.0,99,0.00,,,-99.99,,2013-10-21 12:30:00,
2013-10-21 05:52:00,46.0,46.0,-100.00,NNE,18,2.0,-999.0,99,0.00,,,-99.99,,2013-10-21 12:52:00,
2013-10-21 06:11:00,46.0,46.0,-100.00,NNE,18,2.0,-999.0,99,0.00,,,-99.99,,2013-10-21 13:11:00,
2013-10-21 06:22:00,46.0,46.0,-100.00,NNE,18,2.0,-999.0,99,0.00,,,-99.99,,2013-10-21 13:22:00,
2013-10-21 06:30:00,46.0,45.0,-100.00,North,6,3.0,-999.0,99,0.00,,,-99.99,,2013-10-21 13:30:00,
2013-10-21 06:52:00,46.0,45.0,-100.00,North,6,3.0,-999.0,99,0.00,,,-99.99,,2013-10-21 13:52:00,
2013-10-21 07:02:00,46.0,45.0,-100.00,North,6,3.0,-999.0,99,0.00,,,-99.99,,2013-10-21 14:02:00,
2013-10-21 07:11:00,46.0,45.0,-100.00,North,6,3.0,-999.0,99,0.00,,,-99.99,,2013-10-21 14:11:00,
2013-10-21 07:22:00,46.0,45.0,-100.00,North,6,3.0,-999.0,99,0.00,,,-99.99,,2013-10-21 14:22:00,
2013-10-21 07:30:00,45.0,45.0,-100.00,North,360,2.0,-999.0,99,0.00,,,-99.99,,2013-10-21 14:30:00,
2013-10-21 07:52:00,45.0,45.0,-100.00,North,360,2.0,-999.0,99,0.00,,,-99.99,,2013-10-21 14:52:00,
2013-10-21 08:02:00,45.0,45.0,-100.00,North,360,2.0,-999.0,99,0.00,,,-99.99,,2013-10-21 15:02:00,
2013-10-21 08:12:00,45.0,45.0,-100.00,North,360,2.0,-999.0,99,0.00,,,-99.99,,2013-10-21 15:12:00,
2013-10-21 08:21:00,45.0,45.0,-100.00,North,360,2.0,-999.0,99,0.00,,,-99.99,,2013-10-21 15:21:00,
2013-10-21 08:30:00,45.0,45.0,-100.00,North,360,3.0,-999.0,99,0.00,,,-99.99,,2013-10-21 15:30:00,
2013-10-21 08:53:00,45.0,45.0,-100.00,North,360,3.0,-999.0,99,0.00,,,-99.99,,2013-10-21 15:53:00,
2013-10-21 09:03:00,45.0,45.0,-100.00,North,360,3.0,-999.0,99,0.00,,,-99.99,,2013-10-21 16:03:00,
2013-10-21 09:13:00,45.0,45.0,-100.00,North,360,3.0,-999.0,99,0.00,,,-99.99,,2013-10-21 16:13:00,
2013-10-21 09:23:00,45.0,45.0,-100.00,North,360,3.0,-999.0,99,0.00,,,-99.99,,2013-10-21 16:23:00,
2013-10-21 09:30:00,45.0,45.0,-100.00,North,6,2.0,-999.0,99,0.00,,,-99.99,,2013-10-21 16:30:00,
2013-10-21 09:53:00,45.0,45.0,-100.00,North,6,2.0,-999.0,99,0.00,,,-99.99,,2013-10-21 16:53:00,
2013-10-21 10:02:00,45.0,45.0,-100.00,North,6,2.0,-999.0,99,0.00,,,-99.99,,2013-10-21 17:02:00,
2013-10-21 10:12:00,45.0,45.0,-100.00,North,6,2.0,-999.0,99,0.00,,,-99.99,,2013-10-21 17:12:00,
2013-10-21 10:22:00,45.0,45.0,-100.00,North,6,2.0,-999.0,99,0.00,,,-99.99,,2013-10-21 17:22:00,
2013-10-21 10:30:00,46.0,45.0,-100.00,NE,54,1.0,-999.0,99,0.00,,,-99.99,,2013-10-21 17:30:00,
2013-10-21 10:53:00,46.0,45.0,-100.00,NE,54,1.0,-999.0,99,0.00,,,-99.99,,2013-10-21 17:53:00,
2013-10-21 11:02:00,46.0,45.0,-100.00,NE,54,1.0,-999.0,99,0.00,,,-99.99,,2013-10-21 18:02:00,
2013-10-21 11:12:00,46.0,45.0,-100.00,NE,54,1.0,-999.0,99,0.00,,,-99.99,,2013-10-21 18:12:00,
2013-10-21 11:21:00,46.0,45.0,-100.00,NE,54,1.0,-999.0,99,0.00,,,-99.99,,2013-10-21 18:21:00,
2013-10-21 11:30:00,46.0,46.0,-100.00,NNE,20,2.0,-999.0,99,0.00,,,-99.99,,2013-10-21 18:30:00,
2013-10-21 11:52:00,46.0,46.0,-100.00,NNE,20,2.0,-999.0,99,0.00,,,-99.99,,2013-10-21 18:52:00,
2013-10-21 12:02:00,46.0,46.0,-100.00,NNE,20,2.0,-999.0,99,0.00,,,-99.99,,2013-10-21 19:02:00,
2013-10-21 12:11:00,46.0,46.0,-100.00,NNE,20,2.0,-999.0,99,0.00,,,-99.99,,2013-10-21 19:11:00,
2013-10-21 12:21:00,46.0,46.0,-100.00,NNE,20,2.0,-999.0,99,0.00,,,-99.99,,2013-10-21 19:21:00,
2013-10-21 12:30:00,47.0,46.0,-100.00,NNE,17,3.0,-999.0,99,0.00,,,-99.99,,2013-10-21 19:30:00,
2013-10-21 12:52:00,47.0,46.0,-100.00,NNE,17,3.0,-999.0,99,0.00,,,-99.99,,2013-10-21 19:52:00,
2013-10-21 13:01:00,47.0,46.0,-100.00,NNE,17,3.0,-999.0,99,0.00,,,-99.99,,2013-10-21 20:01:00,
2013-10-21 13:11:00,47.0,46.0,-100.00,NNE,17,3.0,-999.0,99,0.00,,,-99.99,,2013-10-21 20:11:00,
2013-10-21 13:21:00,47.0,46.0,-100.00,NNE,17,3.0,-999.0,99,0.00,,,-99.99,,2013-10-21 20:21:00,
2013-10-21 13:30:00,47.0,47.0,-100.00,NNE,15,6.0,-999.0,99,0.00,,,-99.99,,2013-10-21 20:30:00,
2013-10-21 13:52:00,47.0,47.0,-100.00,NNE,15,6.0,-999.0,99,0.00,,,-99.99,,2013-10-21 20:52:00,
2013-10-21 14:03:00,47.0,47.0,-100.00,NNE,15,6.0,-999.0,99,0.00,,,-99.99,,2013-10-21 21:03:00,
2013-10-21 14:12:00,47.0,47.0,-100.00,NNE,15,6.0,-999.0,99,0.00,,,-99.99,,2013-10-21 21:12:00,
2013-10-21 14:22:00,47.0,47.0,-100.00,NNE,15,6.0,-999.0,99,0.00,,,-99.99,,2013-10-21 21:22:00,
2013-10-21 14:30:00,49.0,48.0,-100.00,NNE,13,6.0,-999.0,99,0.00,,,-99.99,,2013-10-21 21:30:00,
2013-10-21 14:54:00,49.0,48.0,-100.00,NNE,13,6.0,-999.0,99,0.00,,,-99.99,,2013-10-21 21:54:00,
2013-10-21 15:04:00,49.0,48.0,-100.00,NNE,13,6.0,-999.0,99,0.00,,,-99.99,,2013-10-21 22:04:00,
2013-10-21 15:13:00,49.0,48.0,-100.00,NNE,13,6.0,-999.0,99,0.00,,,-99.99,,2013-10-21 22:13:00,
2013-10-21 15:23:00,49.0,48.0,-100.00,NNE,13,6.0,-999.0,99,0.00,,,-99.99,,2013-10-21 22:23:00,
2013-10-21 15:30:00,49.0,48.0,-100.00,NNE,12,4.0,-999.0,99,0.00,,,-99.99,,2013-10-21 22:30:00,
2013-10-21 15:53:00,49.0,48.0,-100.00,NNE,12,4.0,-999.0,99,0.00,,,-99.99,,2013-10-21 22:53:00,
2013-10-21 16:03:00,49.0,48.0,-100.00,NNE,12,4.0,-999.0,99,0.00,,,-99.99,,2013-10-21 23:03:00,
2013-10-21 16:12:00,49.0,48.0,-100.00,NNE,12,4.0,-999.0,99,0.00,,,-99.99,,2013-10-21 23:12:00,
2013-10-21 16:22:00,49.0,48.0,-100.00,NNE,12,4.0,-999.0,99,0.00,,,-99.99,,2013-10-21 23:22:00,
2013-10-21 16:30:00,49.0,49.0,-100.00,NNE,17,4.0,-999.0,98,0.00,,,-99.99,,2013-10-21 23:30:00,
2013-10-21 16:53:00,49.0,49.0,-100.00,NNE,17,4.0,-999.0,98,0.00,,,-99.99,,2013-10-21 23:53:00,
2013-10-21 17:02:00,49.0,49.0,-100.00,NNE,17,4.0,-999.0,98,0.00,,,-99.99,,2013-10-22 00:02:00,
2013-10-21 17:22:00,49.0,49.0,-100.00,NNE,17,4.0,-999.0,98,0.00,,,-99.99,,2013-10-22 00:22:00,
2013-10-21 17:30:00,50.0,49.0,-100.00,NNE,12,2.0,-999.0,98,0.00,,,-99.99,,2013-10-22 00:30:00,
2013-10-21 17:53:00,50.0,49.0,-100.00,NNE,12,2.0,-999.0,98,0.00,,,-99.99,,2013-10-22 00:53:00,
2013-10-21 18:02:00,50.0,49.0,-100.00,NNE,12,2.0,-999.0,98,0.00,,,-99.99,,2013-10-22 01:02:00,
2013-10-21 18:12:00,50.0,49.0,-100.00,NNE,12,2.0,-999.0,98,0.00,,,-99.99,,2013-10-22 01:12:00,
2013-10-21 18:21:00,50.0,49.0,-100.00,NNE,12,2.0,-999.0,98,0.00,,,-99.99,,2013-10-22 01:21:00,
2013-10-21 18:30:00,50.0,49.0,-100.00,NNE,14,1.0,-999.0,98,0.00,,,-99.99,,2013-10-22 01:30:00,
2013-10-21 18:52:00,50.0,49.0,-100.00,NNE,14,1.0,-999.0,98,0.00,,,-99.99,,2013-10-22 01:52:00,
2013-10-21 19:02:00,50.0,49.0,-100.00,NNE,14,1.0,-999.0,98,0.00,,,-99.99,,2013-10-22 02:02:00,
2013-10-21 19:11:00,50.0,49.0,-100.00,NNE,14,1.0,-999.0,98,0.00,,,-99.99,,2013-10-22 02:11:00,
2013-10-21 19:22:00,50.0,49.0,-100.00,NNE,14,1.0,-999.0,98,0.00,,,-99.99,,2013-10-22 02:22:00,
2013-10-21 19:30:00,50.0,50.0,-100.00,NNE,29,0.0,-999.0,98,0.01,,,-99.99,,2013-10-22 02:30:00,
2013-10-21 19:52:00,50.0,50.0,-100.00,NNE,29,0.0,-999.0,98,0.01,,,-99.99,,2013-10-22 02:52:00,
2013-10-21 20:03:00,50.0,50.0,-100.00,NNE,29,0.0,-999.0,98,0.01,,,-99.99,,2013-10-22 03:03:00,
2013-10-21 20:12:00,50.0,50.0,-100.00,NNE,29,0.0,-999.0,98,0.01,,,-99.99,,2013-10-22 03:12:00,
2013-10-21 20:22:00,50.0,50.0,-100.00,NNE,29,0.0,-999.0,98,0.01,,,-99.99,,2013-10-22 03:22:00,
2013-10-21 20:30:00,51.0,50.0,-100.00,North,4,0.0,-999.0,98,0.00,,,-99.99,,2013-10-22 03:30:00,
2013-10-21 20:55:00,51.0,50.0,-100.00,North,4,0.0,-999.0,98,0.00,,,-99.99,,2013-10-22 03:55:00,
2013-10-21 21:05:00,51.0,50.0,-100.00,North,4,0.0,-999.0,98,0.00,,,-99.99,,2013-10-22 04:05:00,
2013-10-21 21:13:00,51.0,50.0,-100.00,North,4,0.0,-999.0,98,0.00,,,-99.99,,2013-10-22 04:13:00,
2013-10-21 21:24:00,51.0,50.0,-100.00,North,4,0.0,-999.0,98,0.00,,,-99.99,,2013-10-22 04:24:00,
2013-10-21 21:30:00,51.0,50.0,-100.00,West,279,0.0,-999.0,98,0.00,,,-99.99,,2013-10-22 04:30:00,
2013-10-21 21:55:00,51.0,50.0,-100.00,West,279,0.0,-999.0,98,0.00,,,-99.99,,2013-10-22 04:55:00,
2013-10-21 22:04:00,51.0,50.0,-100.00,West,279,0.0,-999.0,98,0.00,,,-99.99,,2013-10-22 05:04:00,
2013-10-21 22:13:00,51.0,50.0,-100.00,West,279,0.0,-999.0,98,0.00,,,-99.99,,2013-10-22 05:13:00,
2013-10-21 22:22:00,51.0,50.0,-100.00,West,279,0.0,-999.0,98,0.00,,,-99.99,,2013-10-22 05:22:00,
2013-10-21 22:30:00,51.0,50.0,-100.00,NNE,30,0.0,-999.0,98,0.00,,,-99.99,,2013-10-22 05:30:00,
2013-10-21 22:52:00,51.0,50.0,-100.00,NNE,30,0.0,-999.0,98,0.00,,,-99.99,,2013-10-22 05:52:00,
2013-10-21 23:02:00,51.0,50.0,-100.00,NNE,30,0.0,-999.0,98,0.00,,,-99.99,,2013-10-22 06:02:00,
2013-10-21 23:12:00,51.0,50.0,-100.00,NNE,30,0.0,-999.0,98,0.00,,,-99.99,,2013-10-22 06:12:00,
2013-10-21 23:22:00,51.0,50.0,-100.00,NNE,30,0.0,-999.0,98,0.00,,,-99.99,,2013-10-22 06:22:00,
2013-10-21 23:30:00,50.0,50.0,-100.00,SSE,154,1.0,-999.0,98,0.00,,,-99.99,,2013-10-22 06:30:00,
2013-10-21 23:53:00,50.0,50.0,-100.00,SSE,154,1.0,-999.0,98,0.00,,,-99.99,,2013-10-22 06:53:00,